Regional Weather Roundup
Issued by NWS

Home | Current Version | Previous Version | Graphics & Text | Print | Product List | Glossary On
Versions: 1 2 3 4 5 6 7 8 9 10 11 12 13 14 15 16 17 18 19 20 21 22 23 24 25 26 27 28 29 30 31 32 33 34 35 36 37 38 39 40 41 42 43 44 45 46 47 48 49 50
000
ASUS43 KLSX 201707
RWRMO

WEATHER SUMMARY FOR MISSOURI
NATIONAL WEATHER SERVICE SPRINGFIELD MO
1200 PM CDT SUN APR 20 2014

NOTE: "FAIR" INDICATES FEW OR NO CLOUDS BELOW 12,000 FEET WITH NO
       SIGNIFICANT WEATHER AND/OR OBSTRUCTIONS TO VISIBILITY.
       CURRENT SKY AND/OR WEATHER CONDITIONS ARE NOT AVAILABLE FOR
       CHILLICOTHE AND FARMINGTON.

MOZ001>031-035>038-043-044-053-054-201800-
...NORTHERN AND WESTERN MISSOURI...

CITY           SKY/WX    TMP DP  RH WIND       PRES   REMARKS
KANSAS CTY INT PTSUNNY   76  53  44 S21G30    30.08F
KANSAS C DTWN  MOSUNNY   78  52  40 S15G21    30.08F
LEE`S SUMMIT   MOSUNNY   75  51  43 SW12G23   30.10F
ST JOSEPH      PTSUNNY   77  52  41 S21G26    30.05F
CHILLICOTHE      N/A     74  50  42 SW9G21    30.10F
KIRKSVILLE     SUNNY     77  49  37 SW14      30.12F

$$
MOZ066>068-077>081-088>096-101>105-201800-
...SOUTHWEST MISSOURI...

CITY           SKY/WX    TMP DP  RH WIND       PRES   REMARKS
SPRINGFIELD    MOSUNNY   73  51  46 S14       30.16F
JOPLIN         PTSUNNY   74  51  44 S14       30.13F

$$
MOZ032>034-039>042-045>050-055>058-069>072-201800-
...CENTRAL MISSOURI...

CITY           SKY/WX    TMP DP  RH WIND       PRES   REMARKS
COLUMBIA       MOSUNNY   76  51  41 SW8       30.14F
JEFFERSON CITY SUNNY     76  50  40 S7        30.14F
ROLLA          MOSUNNY   73  51  46 SW6       30.15F
SEDALIA        MOSUNNY   75  51  43 SW17G23   30.14F
WHITEMAN AFB   MOSUNNY   75  50  40 SW18G24   30.11F
OSAGE BEACH    PTSUNNY   75  46  35 S7        30.16F

$$
MOZ051-052-059>065-201800-
...EAST CENTRAL MISSOURI...

CITY           SKY/WX    TMP DP  RH WIND       PRES   REMARKS
ST LOUIS INTL  PTSUNNY   77  43  29 S12       30.17F
SPIRIT OF STL  MOSUNNY   77  43  29 SW7       30.15F
ST CHARLES     SUNNY     76  41  28 S10       30.16F

$$
MOZ072>076-082>087-097>100-106>115-201800-
...SOUTH CENTRAL AND SOUTHEAST MISSOURI...

CITY           SKY/WX    TMP DP  RH WIND       PRES   REMARKS
CAPE GIRARDEAU MOSUNNY   73  44  35 S5        30.20F
FARMINGTON     SUNNY     73  43  33 S5        30.21F
POPLAR BLUFF   MOSUNNY   75  45  34 S5        30.18F
WEST PLAINS    MOSUNNY   71  47  42 VRB5      30.20F

$$



USA.gov is the U.S. government's official web portal to all federal, state and local government web resources and services.